[[{"header":{"parameterUnit":"m.s-1","parameterCategory":1,"la1":30.2991,"la2":30.254,"lo1":-89.0895,"lo2":-89.0444,"dy":0.0017,"dx":0.0017,"nx":28,"ny":28,"refTime":"2025-08-25T21:00:00:Z","depth":0,"parameterNumber":2,"parameterNumberName":"U-component_of_WINDS"},"data":[0,0,0,0,0,0,0,0,0,0,0,0,0,0,0,0,0,0,0,0,0,0,0,0,0,0,0,0,0,0,0,0,0,0,0,0,0,0,0,0,0,0,0,0,0,0,0,0,0,0,0,0,0,0,0,0,0,0,-4.3614,-4.3614,0,-4.3656,-4.3656,-4.3657,-4.3493,-4.3488,-4.3483,-4.3479,-4.3523,-4.3529,-4.3534,0,0,0,0,0,0,0,0,0,0,0,0,0,-4.3392,-4.3396,-4.3614,-4.3614,-4.3615,-4.3656,-4.3656,-4.3657,-4.3494,-4.3488,-4.3482,-4.3477,-4.3521,-4.3528,-4.3535,0,0,0,0,0,0,0,0,0,0,0,0,0,-4.3466,-4.3398,-4.3614,-4.3538,-4.3532,-4.3656,-4.3656,-4.3657,-4.3495,-4.3488,-4.3481,-4.3474,-4.3519,-4.3527,-4.3536,-4.3734,0,0,-4.3562,-4.3566,0,0,0,0,0,0,0,0,-4.3462,-4.3475,-4.3549,-4.3544,-4.3537,-4.3562,-4.3594,-4.3683,-4.3497,-4.3509,-4.3479,-4.347,-4.3542,-4.3548,-4.3572,-4.3736,-4.3738,-4.3563,-4.3568,-4.3572,-4.3574,0,0,0,0,0,0,0,-4.3457,-4.3472,-4.363,-4.355,-4.3543,-4.3502,-4.3505,-4.361,-4.3566,-4.3508,-4.3496,-4.3503,-4.3537,-4.3564,-4.3572,-4.3739,-4.3563,-4.357,-4.3575,-4.3579,-4.4066,-4.4073,0,0,0,0,0,0,-4.3462,-4.3469,-4.3629,-4.3631,-4.3481,-4.3512,-4.3515,-4.3561,-4.3564,-4.3558,-4.3509,-4.3495,-4.3553,-4.3562,-4.3573,-4.3804,-4.3572,-4.358,-4.3585,-4.4058,-4.4067,-4.4076,0,0,0,0,0,0,-4.3458,-4.3478,-4.3627,-4.3547,-4.3563,-4.3524,-4.3577,-4.3566,-4.3592,-4.3565,-4.3557,-4.3545,-4.3548,-4.3561,-4.3695,-4.3803,-4.3583,-4.3591,-4.4049,-4.4061,-4.4072,-4.427,0,0,0,0,0,0,-4.3452,-4.3477,-4.3553,-4.355,-4.3568,-4.3749,-4.3583,-4.3572,-4.3608,-4.359,-4.3597,-4.3591,-4.3543,-4.3683,-4.3703,-4.3811,-4.3598,-4.4039,-4.4054,-4.4068,-4.4253,-4.4287,-4.4315,0,0,0,0,0,-4.3445,-4.3608,-4.3558,-4.3578,-4.3661,-4.3756,-4.3766,-4.3708,-4.3617,-4.3692,-4.3674,-4.3591,-4.3788,-4.3698,-4.372,-4.3832,-4.4032,-4.405,-4.4067,-4.4239,-4.428,-4.4315,0,0,0,0,0,0,-4.3626,-4.3606,-4.355,-4.3717,-4.3739,-4.3728,-4.3821,-4.3753,-4.3802,-4.3783,-4.3708,-4.3711,-4.3859,-4.3858,-4.3758,-4.4023,-4.3894,-4.3917,-4.4018,-4.4057,-4.4087,-4.4084,-4.3605,0,0,0,0,0,-4.3685,-4.3763,-4.3742,-4.3891,-4.3905,-4.3862,-4.3901,-4.3853,-4.3874,-4.3883,-4.3874,-4.3898,-4.3964,-4.401,-4.407,-4.4252,-4.425,-4.4339,-4.4371,-4.4396,-4.4417,-4.4511,-4.455,-4.4134,-4.4133,-4.4133,0,0,-4.3808,-4.3807,-4.3861,-4.3927,-4.3939,-4.4021,-4.3871,-4.3965,-4.4025,-4.3897,-4.4022,-4.4018,-4.4038,-4.4197,-4.4266,-4.4201,-4.4531,-4.4418,-4.4439,-4.4446,-4.4533,-4.4573,-4.4608,-4.4145,-4.4143,-4.4141,0,0,-4.4074,-4.4082,-4.4206,-4.422,-4.424,-4.4209,-4.4239,-4.4239,-4.423,-4.4355,-4.4259,-4.433,-4.4447,-4.4465,-4.449,-4.4761,-4.4686,-4.4783,-4.4945,-4.5038,-4.5071,-4.51,-4.5196,-4.5231,-4.4803,-4.4804,-4.4804,0,-4.4225,-4.4346,-4.4279,-4.4379,-4.441,-4.4296,-4.4421,-4.4438,-4.4477,-4.4501,-4.4427,-4.4571,-4.4577,-4.4737,-4.4803,-4.4827,-4.4858,-4.4782,-4.5072,-4.51,-4.5126,-4.5216,-4.5253,-4.4815,-4.4814,-4.4813,-4.4812,0,-4.453,-4.4615,-4.4713,-4.4752,-4.4794,-4.4907,-4.4856,-4.4907,-4.4855,-4.4833,-4.496,-4.4963,-4.5021,-4.5055,-4.5007,-4.5209,-4.5167,-4.5084,-4.4953,-4.5178,-4.5262,-4.5297,-4.4832,-4.4828,-4.4824,-4.4822,0,0,-4.4914,-4.4912,-4.4949,-4.4965,-4.4976,-4.5041,-4.5147,-4.5203,-4.5248,-4.5277,-4.5364,-4.5465,-4.5387,-4.5416,-4.5367,-4.5449,-4.5663,-4.5355,-4.5354,-4.5412,-4.5884,-4.5947,-4.5989,-4.5612,-4.5618,-4.5623,-4.5882,0,-4.5175,-4.5356,-4.5298,-4.5482,-4.5559,-4.5451,-4.5543,-4.556,-4.5542,-4.5604,-4.5583,-4.5655,-4.5547,-4.5563,-4.5639,-4.5621,-4.5756,-4.5601,-4.5692,-4.5696,-4.5691,-4.6032,-4.61,-4.6344,-4.5915,-4.592,-4.5924,0,-4.5504,-4.5546,-4.5738,-4.5734,-4.5764,-4.5849,-4.5894,-4.5955,-4.5972,-4.5952,-4.5983,-4.5917,-4.602,-4.5889,-4.603,-4.5926,-4.5959,-4.5955,-4.5963,-4.597,-4.5824,-4.6048,-4.642,-4.6457,-4.5976,-4.5971,-4.5968,0,-4.5764,-4.5868,-4.5995,-4.6012,-4.6012,-4.6074,-4.6076,-4.6086,-4.6122,-4.6162,-4.6185,-4.6237,-4.6265,-4.6307,-4.6256,-4.6165,-4.6404,-4.6269,-4.6391,-4.6392,-4.6447,-4.6444,-4.683,-4.6469,-4.6468,-4.6467,-4.6467,0,-4.6062,-4.6184,-4.6112,-4.6191,-4.6323,-4.6254,-4.6387,-4.6377,-4.6386,-4.646,-4.637,-4.6441,-4.637,-4.6435,-4.6396,-4.6518,-4.6532,-4.6519,-4.6507,-4.6527,-4.6529,-4.6548,-4.653,-4.6477,-4.6475,-4.6473,-4.6471,0,-4.6375,-4.6332,-4.6464,-4.6452,-4.6452,-4.655,-4.654,-4.6612,-4.6585,-4.6681,-4.6699,-4.6659,-4.673,-4.6683,-4.6756,-4.6729,-4.6889,-4.6854,-4.6884,-4.6874,-4.6998,-4.6987,-4.741,-4.7462,-4.7068,-4.7072,-4.7075,0,-4.6568,-4.6659,-4.6656,-4.6699,-4.6708,-4.6779,-4.6815,-4.675,-4.6792,-4.6816,-4.6885,-4.6949,-4.6996,-4.7115,-4.7092,-4.7147,-4.7112,-4.7256,-4.712,-4.7137,-4.7114,-4.7109,-4.7117,-4.7284,-4.7289,-4.7293,-4.7296,0,-4.6916,-4.6889,-4.6945,-4.6994,-4.704,-4.7075,-4.7103,-4.7143,-4.7078,-4.7129,-4.7201,-4.7238,-4.731,-4.7375,-4.742,-4.7421,-4.7349,-4.7339,-4.737,-4.7391,-4.7405,-4.7398,-4.6959,-4.733,-4.7326,-4.7324,-4.7322,-4.7321,-4.7174,-4.7249,-4.7258,-4.7323,-4.7337,-4.7365,-4.7431,-4.7413,-4.7471,-4.7525,-4.7483,-4.7568,-4.758,-4.7633,-4.7644,-4.771,-4.7651,-4.7696,-4.7707,-4.7719,-4.7736,-4.7394,-4.7718,-4.7716,-4.7716,-4.7715,-4.7714,0,-4.7516,-4.7516,-4.7576,-4.7617,-4.7668,-4.7594,-4.762,-4.7668,-4.7744,-4.7761,-4.7809,-4.7891,-4.7952,-4.7933,-4.7987,-4.8043,-4.8011,-4.806,-4.8055,-4.8056,-4.7786,-4.7754,-4.8085,-4.8085,-4.8085,-4.8085,-4.8085,-4.8084,-4.7699,-4.7821,-4.7796,-4.7924,-4.7923,-4.8005,-4.8027,-4.8051,-4.8064,-4.816,-4.821,-4.8197,-4.8199,-4.8253,-4.8305,-4.8298,-4.8322,-4.8383,-4.8364,-4.8112,-4.8076,-4.8041,-4.801,-4.8389,-4.8389,-4.8628,-4.863,-4.8632]},{"header":{"parameterUnit":"m.s-1","parameterCategory":1,"la1":30.2991,"la2":30.254,"lo1":-89.0895,"lo2":-89.0444,"dy":0.0017,"dx":0.0017,"nx":28,"ny":28,"refTime":"2025-08-25T21:00:00:Z","depth":0,"parameterNumber":3,"parameterNumberName":"V-component_of_WINDS"},"data":[0,0,0,0,0,0,0,0,0,0,0,0,0,0,0,0,0,0,0,0,0,0,0,0,0,0,0,0,0,0,0,0,0,0,0,0,0,0,0,0,0,0,0,0,0,0,0,0,0,0,0,0,0,0,0,0,0,0,-2.3249,-2.325,0,-2.3274,-2.3274,-2.3275,-2.3269,-2.3269,-2.3268,-2.3268,-2.3293,-2.3294,-2.3295,0,0,0,0,0,0,0,0,0,0,0,0,0,-2.3194,-2.3195,-2.3249,-2.325,-2.325,-2.3274,-2.3274,-2.3275,-2.3269,-2.3269,-2.3268,-2.3268,-2.3292,-2.3294,-2.3295,0,0,0,0,0,0,0,0,0,0,0,0,0,-2.3218,-2.3196,-2.3249,-2.325,-2.325,-2.3274,-2.3275,-2.3275,-2.327,-2.3269,-2.3268,-2.3267,-2.3292,-2.3294,-2.3295,-2.3319,0,0,-2.33,-2.3301,0,0,0,0,0,0,0,0,-2.3217,-2.322,-2.325,-2.325,-2.325,-2.3268,-2.3264,-2.329,-2.327,-2.3262,-2.3268,-2.3267,-2.3285,-2.3287,-2.3293,-2.3321,-2.3322,-2.33,-2.3301,-2.3302,-2.3303,0,0,0,0,0,0,0,-2.3215,-2.3219,-2.3259,-2.325,-2.3251,-2.3248,-2.3251,-2.3269,-2.3277,-2.3263,-2.3262,-2.3266,-2.3285,-2.3292,-2.3294,-2.3322,-2.33,-2.3302,-2.3303,-2.3303,-2.3367,-2.3368,0,0,0,0,0,0,-2.3214,-2.3218,-2.3258,-2.326,-2.3232,-2.325,-2.3253,-2.3263,-2.3277,-2.3278,-2.3266,-2.3265,-2.3289,-2.3292,-2.3295,-2.3322,-2.3302,-2.3304,-2.3305,-2.3366,-2.3367,-2.3368,0,0,0,0,0,0,-2.3212,-2.3217,-2.3257,-2.3239,-2.3244,-2.3252,-2.3263,-2.3264,-2.3271,-2.328,-2.3281,-2.3272,-2.3289,-2.3292,-2.3313,-2.3323,-2.3304,-2.3306,-2.3365,-2.3366,-2.3367,-2.3378,0,0,0,0,0,0,-2.3211,-2.3217,-2.3227,-2.3239,-2.3245,-2.3276,-2.3264,-2.3265,-2.3274,-2.3273,-2.3285,-2.3286,-2.3289,-2.331,-2.3314,-2.3325,-2.3307,-2.3365,-2.3366,-2.3367,-2.3377,-2.3379,-2.3381,0,0,0,0,0,-2.3209,-2.3229,-2.3228,-2.3232,-2.3258,-2.3276,-2.3279,-2.3282,-2.3274,-2.3284,-2.3289,-2.3286,-2.3321,-2.3312,-2.3317,-2.3328,-2.3364,-2.3365,-2.3367,-2.3376,-2.3379,-2.3381,0,0,0,0,0,0,-2.3219,-2.3231,-2.3229,-2.3254,-2.3264,-2.3275,-2.3288,-2.3285,-2.3298,-2.3296,-2.3298,-2.3301,-2.3321,-2.3327,-2.3317,-2.3351,-2.3341,-2.3344,-2.3346,-2.3349,-2.3351,-2.3349,-2.3308,0,0,0,0,0,-2.3224,-2.3239,-2.3248,-2.327,-2.3274,-2.328,-2.3288,-2.3289,-2.3299,-2.3303,-2.331,-2.332,-2.3333,-2.3341,-2.3354,-2.3377,-2.3379,-2.3387,-2.3389,-2.3391,-2.3393,-2.3403,-2.3407,-2.3373,-2.3373,-2.3373,0,0,-2.3235,-2.3243,-2.3253,-2.3272,-2.3279,-2.3293,-2.3284,-2.33,-2.331,-2.3306,-2.3325,-2.333,-2.3341,-2.3362,-2.3371,-2.3367,-2.3403,-2.3393,-2.3395,-2.3396,-2.3405,-2.3409,-2.3411,-2.3374,-2.3374,-2.3374,0,0,-2.3261,-2.327,-2.3287,-2.3295,-2.3306,-2.3309,-2.3313,-2.3324,-2.3327,-2.3346,-2.3343,-2.3354,-2.3377,-2.3384,-2.3391,-2.3417,-2.3414,-2.3421,-2.3433,-2.3443,-2.3445,-2.3448,-2.3455,-2.3458,-2.3423,-2.3423,-2.3423,0,-2.3273,-2.3295,-2.3297,-2.3312,-2.3319,-2.3316,-2.3332,-2.3339,-2.3354,-2.3359,-2.3354,-2.3381,-2.3388,-2.341,-2.3415,-2.3422,-2.3425,-2.3419,-2.3445,-2.3447,-2.3449,-2.3457,-2.346,-2.3424,-2.3423,-2.3423,-2.3423,0,-2.3308,-2.3322,-2.3335,-2.3348,-2.3357,-2.3373,-2.3376,-2.3385,-2.3384,-2.3387,-2.3405,-2.3413,-2.3426,-2.3432,-2.3432,-2.3453,-2.3449,-2.3445,-2.3435,-2.3453,-2.346,-2.3463,-2.3425,-2.3424,-2.3424,-2.3424,0,0,-2.3343,-2.3355,-2.3359,-2.3364,-2.3375,-2.3386,-2.3401,-2.3413,-2.342,-2.343,-2.3441,-2.3459,-2.3454,-2.3461,-2.3462,-2.3471,-2.3488,-2.3465,-2.3465,-2.3467,-2.3509,-2.3512,-2.3515,-2.3486,-2.3487,-2.3487,-2.3508,0,-2.3369,-2.3395,-2.3395,-2.3419,-2.3431,-2.3427,-2.3439,-2.3447,-2.3449,-2.3459,-2.3463,-2.3475,-2.3468,-2.3472,-2.3481,-2.3484,-2.3496,-2.3483,-2.3496,-2.3496,-2.3492,-2.3519,-2.3523,-2.3542,-2.3511,-2.3511,-2.3512,0,-2.3403,-2.3413,-2.3437,-2.3444,-2.3449,-2.346,-2.347,-2.348,-2.3488,-2.3489,-2.3496,-2.3495,-2.3508,-2.3498,-2.3516,-2.3507,-2.3512,-2.3514,-2.3515,-2.3515,-2.3504,-2.3519,-2.3548,-2.3551,-2.3516,-2.3516,-2.3515,0,-2.3424,-2.3443,-2.3459,-2.3464,-2.3473,-2.348,-2.3484,-2.3491,-2.3498,-2.3506,-2.351,-2.352,-2.3526,-2.3533,-2.3533,-2.3527,-2.355,-2.3541,-2.3551,-2.3551,-2.3556,-2.3555,-2.3585,-2.3561,-2.3561,-2.3561,-2.3561,0,-2.3453,-2.3467,-2.3468,-2.3479,-2.3494,-2.3494,-2.3509,-2.3512,-2.3518,-2.3528,-2.3525,-2.3534,-2.3534,-2.3543,-2.3544,-2.3557,-2.356,-2.356,-2.356,-2.356,-2.356,-2.3563,-2.3561,-2.3561,-2.3561,-2.3561,-2.3561,0,-2.3478,-2.348,-2.3497,-2.3503,-2.3505,-2.3516,-2.3521,-2.353,-2.3531,-2.3543,-2.3546,-2.3549,-2.3559,-2.356,-2.3573,-2.3573,-2.3588,-2.3587,-2.3586,-2.3585,-2.3594,-2.3593,-2.3626,-2.3629,-2.3604,-2.3604,-2.3604,0,-2.3496,-2.3507,-2.3514,-2.352,-2.3524,-2.3534,-2.354,-2.3539,-2.3546,-2.3553,-2.3561,-2.357,-2.3578,-2.3594,-2.3597,-2.3605,-2.3604,-2.3615,-2.3605,-2.3604,-2.3602,-2.3601,-2.3601,-2.3616,-2.3617,-2.3617,-2.3617,0,-2.3527,-2.3526,-2.3535,-2.3544,-2.3551,-2.3557,-2.3564,-2.3569,-2.3569,-2.3576,-2.3586,-2.3591,-2.3603,-2.3612,-2.362,-2.3623,-2.362,-2.362,-2.3622,-2.3622,-2.362,-2.362,-2.3589,-2.3619,-2.3619,-2.3619,-2.3619,-2.3619,-2.3548,-2.3557,-2.3562,-2.3571,-2.3575,-2.3581,-2.3588,-2.359,-2.3599,-2.3607,-2.3607,-2.3617,-2.3622,-2.3632,-2.3636,-2.3643,-2.364,-2.3644,-2.3644,-2.3645,-2.3645,-2.3619,-2.3645,-2.3645,-2.3645,-2.3645,-2.3645,0,-2.3577,-2.358,-2.3588,-2.3596,-2.3603,-2.3599,-2.3605,-2.3611,-2.362,-2.3624,-2.3631,-2.3642,-2.365,-2.3652,-2.366,-2.3665,-2.3664,-2.3667,-2.3666,-2.3667,-2.3649,-2.3645,-2.3668,-2.3668,-2.3668,-2.3668,-2.3668,-2.3668,-2.3593,-2.3606,-2.3606,-2.3621,-2.3623,-2.3633,-2.3636,-2.3641,-2.3644,-2.3656,-2.3662,-2.3663,-2.3667,-2.3674,-2.3681,-2.3681,-2.3684,-2.3688,-2.3687,-2.3671,-2.3668,-2.3666,-2.3663,-2.3688,-2.3688,-2.3704,-2.3704,-2.3705]}]]